www.pogodaiklimat.ru

Погода и климат >> Архив погоды >> Молдова >> Корнесты


ПОГОДА в Корнестах

  • Прогноз погоды в Корнестах
  • Монитор погоды в Корнестах

АРХИВ ПОГОДЫ в Корнестах

Время (UTC), дата Ветер
(напр.,м/с)
 
Видим.   Явления Облачность Т
(С)
Тd
(С)
f
(%)
Тe
(С)
Тes
(С)
Комфортность P
(гПа)
Po
(гПа)
Тmin
(С)
Tmax
(С)
R
(мм)
R24
(мм)
S
(см)
00 16.07 штиль 0 10 км 3/3
[Sc]
+14.5 +14.5 100 +14 +14 1010.8 983.4
03 16.07 СЗ 1 2000 м дымка 4/0
[Ac trans]
+14.6 +14.6 100 +15 +15 1011.0 983.6
06 16.07 З 1 200 м туман ?/? +15.1 +15.1 100 +16 +16 1011.4 984.1 +14.0
09 16.07 С 2 10 км {туман} 8/8 600 м
[Cb calv]
+22.4 +18.0 76 +27 +31 душно 1010.3 983.7
12 16.07 СЗ 2 10 км {туман} 5/5 600 м
[Cb calv]
+25.5 +14.3 50 +28 +35 жарко 1009.2 982.8
15 16.07 С 2 10 км 3/3 600 м
[Cu hum]
+24.9 +12.5 46 +27 +30 жарко 1008.6 982.2
18 16.07 штиль 0 10 км 1/0
[Ac trans]
+20.5 +12.2 59 +22 +22 комфорт 1009.3 982.5 +26.1
21 16.07 ЮВ 2 10 км ясно +16.1 +14.1 88 +16 +16 1010.6 983.4
00 17.07 штиль 0 10 км ясно +15.7 +13.2 85 +15 +15 1010.1 982.8
03 17.07 штиль 0 10 км ясно +15.3 +13.5 89 +15 +15 1009.7 982.4
06 17.07 СЗ 1 10 км 3/0
[Ac trans]
+18.1 +15.9 87 +19 +26 1009.8 982.8 +14.0
09 17.07 С 2 10 км 8/4 600 м
[Sc Ac trans]
+23.3 +16.6 66 +28 +34 душно 1009.0 982.5
12 17.07 СВ 1 10 км 4/3 600 м
[Cu hum Ac trans Ci fib]
+24.2 +15.2 57 +27 +38 жарко 1008.0 981.6
15 17.07 С 2 10 км 4/3 600 м
[Cu Sc Ac trans]
+24.4 +14.2 53 +27 +30 жарко 1007.7 981.3
18 17.07 С 1 10 км 8/8 600 м
[Sc]
+20.2 +12.9 63 +23 +23 комфорт 1008.9 982.1 +25.4
21 17.07 С 2 10 км 8/8 600 м
[Sc]
+19.2 +11.8 62 +21 +21 комфорт 1010.6 983.6
00 18.07 С 1 10 км 9/9 600 м
[Sc]
+16.9 +10.1 64 +18 +18 1011.3 984.1
03 18.07 штиль 0 10 км ясно +13.6 +10.6 82 +13 +13 1012.5 984.9
06 18.07 СЗ 2 10 км ясно +18.7 +14.2 75 +20 +27 1012.2 985.2 +13.3
09 18.07 С 2 10 км 3/3 600 м
[Cu med, cong]
+23.3 +12.3 50 +26 +38 жарко 1012.0 985.4
12 18.07 С 2 10 км 4/4 600 м
[Cu med, cong]
+23.6 +11.0 45 +25 +34 комфорт 1012.1 985.5
15 18.07 СЗ 2 10 км 4/1 600 м
[Cu hum Ci fib]
+25.1 +10.2 39 +26 +30 жарко 1011.8 985.3
18 18.07 С 1 10 км 3/3 600 м
[Sc Ci fib]
+20.1 +10.2 53 +23 +23 комфорт 1013.4 986.4 +26.3
21 18.07 ЮВ 1 10 км 3/0
[Ci fib]
+17.0 +11.1 68 +18 +18 1014.9 987.6
00 19.07 З 1 10 км 10/10 600 м
[Sc]
+17.0 +11.9 72 +18 +18 1015.9 988.6
03 19.07 ЮВ 1 10 км в посл. час ливневой дождь 9/9 600 м
[Cb calv]
+16.6 +14.8 89 +17 +17 1016.2 988.9
06 19.07 ЮВ 2 10 км {ливн. осадки} 10/10 600 м
[Cb calv]
+16.4 +15.8 96 +16 +16 1017.0 989.6 +15.6 0.4
09 19.07 СВ 1 10 км 6/1 600 м
[Cb calv Ac trans]
+24.7 +13.0 48 +27 +38 жарко 1016.0 989.4
12 19.07 З 1 10 км 5/5 600 м
[Cb calv]
+27.1 +12.4 40 +29 +37 жарко 1015.3 988.9
15 19.07 ЮВ 2 10 км 3/3 600 м
[Cb calv]
+26.3 +12.7 43 +28 +31 жарко 1015.1 988.6
18 19.07 ЮВ 1 10 км 3/1 600 м
[Sc Ci fib]
+21.9 +15.0 65 +25 +25 комфорт 1016.0 989.2 +28.5
21 19.07 ЮВ 3 10 км ясно +17.8 +15.2 85 +18 +18 1017.7 990.4
00 20.07 ЮВ 2 10 км 1/0
[Ci fib]
+16.5 +15.0 91 +17 +17 1017.7 990.3
03 20.07 ЮВ 2 10 км 4/4 600 м
[Sc]
+17.6 +15.9 90 +18 +18 1017.9 990.6
06 20.07 ЮВ 1 10 км 8/6 600 м
[Cb calv Ac trans]
+21.2 +18.2 83 +25 +28 комфорт 1018.1 991.2 +16.2
09 20.07 СЗ 1 10 км 5/4 600 м
[Cu med, cong Cc]
+26.7 +18.6 61 +32 +43 очень
душно
1017.6 991.2
12 20.07 ЮВ 3 10 км 8/8 600 м
[Cb calv]
+26.3 +16.0 53 +30 +32 душно 1017.2 990.7
15 20.07 Ю 4 10 км 8/8 600 м
[Cb calv]
+25.4 +16.5 58 +29 +30 душно 1016.7 990.2
18 20.07 ЮВ 2 10 км в посл. час ливневой дождь 9/8 600 м
[Cb calv Cs]
+21.9 +18.9 83 +27 +27 душно 1017.4 990.6 +30.9 0.4
21 20.07 ЮВ 1 10 км 9/9 600 м
[Cb calv]
+20.4 +18.3 88 +25 +25 комфорт 1018.6 991.6
00 21.07 ЮВ 1 10 км ясно +18.2 +16.9 92 +20 +20 1018.7 991.5
03 21.07 ЮВ 1 10 км {туман} ясно +16.7 +16.7 100 +18 +18 1018.9 991.5
06 21.07 СЗ 1 10 км ясно +22.2 +19.4 84 +28 +36 душно 1018.5 991.7 +16.7
09 21.07 СЗ 1 10 км 3/1 600 м
[Cu hum Ci fib]
+28.4 +17.0 50 +32 +49 душно 1017.8 991.5
12 21.07 СЗ 1 10 км 5/3 600 м
[Cu hum Cs]
+31.6 +15.2 37 +34 +45 душно 1016.6 990.6
15 21.07 З 1 10 км 3/1 600 м
[Cu hum Ci fib]
+31.3 +13.6 34 +33 +37 жарко 1015.7 989.7
18 21.07 С 1 10 км 3/0
[Ac trans Ci fib]
+24.7 +14.2 52 +27 +27 жарко 1016.9 990.3 +32.3
21 21.07 ЮВ 1 10 км зарница ясно +22.0 +14.1 61 +25 +25 комфорт 1017.9 991.0
00 22.07 ЮВ 2 10 км 1/0
[Ci fib]
+20.1 +14.7 71 +23 +23 комфорт 1017.9 990.8
03 22.07 ЮВ 1 10 км 3/0
[Ac trans Ci fib]
+19.4 +17.7 90 +23 +23 комфорт 1017.6 990.5
06 22.07 С 1 10 км 4/0
[Ac trans Ci fib]
+23.3 +20.1 82 +30 +37 очень
душно
1018.1 991.4 +18.4
09 22.07 С 2 10 км 4/3 600 м
[Cu hum Cs]
+26.8 +19.7 65 +33 +44 очень
душно
1017.9 991.5
12 22.07 С 3 10 км 4/3 600 м
[Cb calv Ci fib]
+29.4 +17.9 50 +34 +42 очень
душно
1016.6 990.4
15 22.07 С 2 10 км 5/1 600 м
[Cu hum Cs]
+28.5 +17.4 51 +33 +36 очень
душно
1015.8 989.6
18 22.07 С 1 10 км 5/4 600 м
[Cb calv Cs]
+24.1 +16.9 64 +28 +28 душно 1017.0 990.3 +30.2
21 22.07 СВ 2 10 км 3/3 600 м
[Sc]
+23.0 +17.0 69 +28 +28 душно 1017.4 990.6

 

Местоположение метеостанции Корнесты (Молдова): широта 47.33 долгота 28.08 высота над уровнем моря 232 м.

В архиве по умолчанию представлена погода в Корнестах за последнюю неделю. Архивные данные за месяц целиком и за предыдущие месяцы, начиная с января 2011 года, Вы можете получить, выбрав интересующий диапазон дат из раскрывающегося списка и нажав кнопку "Ввод!".


*Определитесь, кто Вы:
робот инопланетянин человек

Внимание! Время в таблицах - всемирное. Для получения местного времени необходимо прибавить поправку, которая равна 2 ч.

Смотрите также архив погоды в соседних городах и на ближайших метеорологических станциях:

Погода в Бравичах (Молдова) (27 км)
Погода в Кодрах (Молдова) (35 км)
Погода в Яссы (Румыния) (38 км)
Погода в Фалештах (Молдова) (40 км)
Погода в Бельцах (Молдова) (51 км)
Погода в Барнрва (Румыния) (52 км)
Погода в Дубоссарах (Молдова) (70 км)
Погода в Негрешти (Румыния) (72 км)
Погода в Кишиневе (Молдова) (76 км)
Погода в Балцате (Молдова) (78 км)

Пояснения к столбцам:

Ветер - указаны скорость ветра в м/с - средняя за 10 мин, порывы в срок и между сроками (в фигурных скобках) и направление, откуда дует ветер: С - северный, СВ - северо-восточный, В - восточный, ЮВ - юго-восточный, Ю - южный, ЮЗ - юго-западный, З - западный, СЗ - северо-западный.
Видимость - горизонтальная дальность видимости в метрах или километрах. При видимости от 1 до 10 км при отсутствии осадков обычно наблюдается дымка, при ухудшении видимости до 1 км и менее - туман. В сухую погоду видимость может ухудшаться дымом, пылью или мглою.
Явления - указаны атмосферные явления, наблюдавшиеся в срок или в последний час перед сроком; фигурными скобками обозначены явления, наблюдавшиеся между сроками (за 1-3 часа до срока); квадратными скобками обозначены град или гололедные отложения с указанием их диаметра в мм.
Облачность - указаны через наклонную черту общая и нижняя облачность в баллах и высота нижней границы облаков в метрах; квадратными скобками обозначены формы облаков: Ci - перистые, Cs - перисто-слоистые, Cc - перисто-кучевые, Ac - высококучевые, As - высокослоистые, Sc - слоисто-кучевые, Ns - слоисто-дождевые, Cu - кучевые, Cb - кучево-дождевые. Подробнее классификацию облаков см. в Атласе облаков (PDF).
T - Температура воздуха - температура, измеренная на высоте 2 м над землей.
Td - Температура точки росы - температура, при понижении до которой содержащийся в воздухе водяной пар достигнет насыщения.
f - Относительная влажность воздуха - влажноcть воздуха, измеренная на высоте 2 м над землей.
Te - Эффективная температура - температура, которую ощущает одетый по сезону человек в тени. Характеристика душности погоды. При расчете учитывается влияние влажности воздуха и скорости ветра на теплоощущения человека.
Tes - Эффективная температура на солнце - температура, которую ощущает человек, с поправкой на солнечный нагрев. Характеристика знойности погоды. Зависит от высоты солнца над горизонтом, облачности и скорости ветра. Ночью, в пасмурную погоду, а также при ветре 12 м/с и более поправка равна нулю.
P - Атмосферное давление - приведенное к уровню моря атмосферное давление.
Po - Атмосферное давление - измеренное на уровне метеостанции атмосферное давление.
Tmin - Минимальная температура - минимум температуры воздуха на высоте 2 м над землей.
Tmax - Максимальная температура - максимум температуры воздуха на высоте 2 м над землей.
R - Количество осадков - Количество выпавших осадков за период времени, мм. При наведении курсора мыши на число - период времени, за который выпало указанное количество осадков.
R24 - Количество осадков - Количество выпавших осадков за 24 часа, мм.
S - Снежный покров - Высота снежного покрова, см. При наведении курсора мыши на число - состояние снежного покрова и степень покрытия местности в баллах.